Time,TemperatureF,DewpointF,PressureIn,WindDirection,WindDirectionDegrees,WindSpeedMPH,WindSpeedGustMPH,Humidity,HourlyPrecipIn,Conditions,Clouds,dailyrainin,SoftwareType,DateUTC
2013-02-03 00:13:00,47.0,41.0,30.03,West,259,8.0,10.0,80,0.00,,,0.00,weatherlink.com 1.10,2013-02-03 05:13:00,
2013-02-03 00:28:00,47.9,41.0,30.02,WNW,294,6.0,13.0,77,0.00,,,0.00,weatherlink.com 1.10,2013-02-03 05:28:00,
2013-02-03 00:43:00,48.2,41.0,30.01,WNW,288,5.0,9.0,75,0.00,,,0.00,weatherlink.com 1.10,2013-02-03 05:43:00,
2013-02-03 01:14:00,46.0,40.0,30.02,NW,308,4.0,13.0,78,0.00,,,0.00,weatherlink.com 1.10,2013-02-03 06:14:00,
2013-02-03 01:28:00,44.5,39.0,30.00,NNW,338,3.0,10.0,80,0.00,,,0.00,weatherlink.com 1.10,2013-02-03 06:28:00,
2013-02-03 01:43:00,44.3,39.0,29.99,NW,325,4.0,11.0,81,0.00,,,0.00,weatherlink.com 1.10,2013-02-03 06:43:00,
2013-02-03 01:58:00,43.6,38.0,30.00,West,279,5.0,9.0,81,0.00,,,0.00,weatherlink.com 1.10,2013-02-03 06:58:00,
2013-02-03 02:14:00,43.1,38.0,29.99,WNW,292,3.0,5.0,83,0.00,,,0.00,weatherlink.com 1.10,2013-02-03 07:14:00,
2013-02-03 02:29:00,42.9,38.0,29.99,WNW,282,2.0,6.0,83,0.00,,,0.00,weatherlink.com 1.10,2013-02-03 07:29:00,
2013-02-03 02:44:00,42.9,38.0,29.99,West,263,4.0,5.0,84,0.00,,,0.00,weatherlink.com 1.10,2013-02-03 07:44:00,
2013-02-03 02:58:00,42.9,38.0,29.98,West,281,2.0,4.0,84,0.00,,,0.00,weatherlink.com 1.10,2013-02-03 07:58:00,
2013-02-03 03:14:00,43.2,39.0,29.97,WSW,248,2.0,5.0,84,0.00,,,0.00,weatherlink.com 1.10,2013-02-03 08:14:00,
2013-02-03 03:29:00,43.1,39.0,29.97,WSW,246,5.0,7.0,84,0.00,,,0.00,weatherlink.com 1.10,2013-02-03 08:29:00,
2013-02-03 03:44:00,43.2,39.0,29.96,WNW,295,3.0,6.0,85,0.00,,,0.00,weatherlink.com 1.10,2013-02-03 08:44:00,
2013-02-03 03:59:00,42.4,38.0,29.96,WNW,283,3.0,5.0,85,0.00,,,0.00,weatherlink.com 1.10,2013-02-03 08:59:00,
2013-02-03 04:14:00,41.7,38.0,29.95,WNW,290,3.0,5.0,87,0.00,,,0.00,weatherlink.com 1.10,2013-02-03 09:14:00,
2013-02-03 04:29:00,41.5,38.0,29.95,WNW,292,3.0,5.0,87,0.00,,,0.00,weatherlink.com 1.10,2013-02-03 09:29:00,
2013-02-03 04:44:00,41.3,38.0,29.95,WNW,293,1.0,4.0,87,0.00,,,0.00,weatherlink.com 1.10,2013-02-03 09:44:00,
2013-02-03 04:59:00,41.2,38.0,29.94,West,281,2.0,3.0,88,0.00,,,0.00,weatherlink.com 1.10,2013-02-03 09:59:00,
2013-02-03 05:14:00,41.3,38.0,29.94,West,279,2.0,3.0,87,0.00,,,0.00,weatherlink.com 1.10,2013-02-03 10:14:00,
2013-02-03 05:29:00,40.9,38.0,29.95,WSW,258,2.0,4.0,88,0.00,,,0.00,weatherlink.com 1.10,2013-02-03 10:29:00,
2013-02-03 05:44:00,40.9,38.0,29.95,West,269,3.0,5.0,88,0.00,,,0.00,weatherlink.com 1.10,2013-02-03 10:44:00,
2013-02-03 05:59:00,40.9,37.0,29.94,West,277,2.0,4.0,87,0.00,,,0.00,weatherlink.com 1.10,2013-02-03 10:59:00,
2013-02-03 06:14:00,40.3,37.0,29.94,WNW,298,2.0,4.0,88,0.00,,,0.00,weatherlink.com 1.10,2013-02-03 11:14:00,
2013-02-03 06:29:00,39.9,37.0,29.93,North,360,3.0,4.0,89,0.00,,,0.00,weatherlink.com 1.10,2013-02-03 11:29:00,
2013-02-03 06:44:00,39.5,37.0,29.94,NW,323,2.0,4.0,90,0.00,,,0.00,weatherlink.com 1.10,2013-02-03 11:44:00,
2013-02-03 06:59:00,39.0,36.0,29.94,WNW,288,3.0,4.0,90,0.00,,,0.00,weatherlink.com 1.10,2013-02-03 11:59:00,
2013-02-03 07:14:00,39.1,37.0,29.94,WNW,284,3.0,3.0,90,0.00,,,0.00,weatherlink.com 1.10,2013-02-03 12:14:00,
2013-02-03 07:29:00,38.9,36.0,29.95,WNW,284,3.0,4.0,90,0.00,,,0.00,weatherlink.com 1.10,2013-02-03 12:29:00,
2013-02-03 07:44:00,38.3,36.0,29.96,West,273,4.0,6.0,91,0.00,,,0.00,weatherlink.com 1.10,2013-02-03 12:44:00,
2013-02-03 07:59:00,39.2,37.0,29.97,West,279,5.0,7.0,91,0.00,,,0.00,weatherlink.com 1.10,2013-02-03 12:59:00,
2013-02-03 08:14:00,39.4,37.0,29.96,WNW,294,4.0,10.0,91,0.00,,,0.00,weatherlink.com 1.10,2013-02-03 13:14:00,
2013-02-03 08:29:00,40.1,38.0,29.96,WNW,291,6.0,8.0,90,0.00,,,0.00,weatherlink.com 1.10,2013-02-03 13:29:00,
2013-02-03 08:44:00,41.2,38.0,29.97,WNW,300,8.0,11.0,88,0.00,,,0.00,weatherlink.com 1.10,2013-02-03 13:44:00,
2013-02-03 08:59:00,41.6,38.0,29.96,WNW,297,7.0,11.0,86,0.00,,,0.00,weatherlink.com 1.10,2013-02-03 13:59:00,
2013-02-03 09:14:00,42.3,38.0,29.96,NNW,339,1.0,11.0,86,0.00,,,0.00,weatherlink.com 1.10,2013-02-03 14:14:00,
2013-02-03 09:30:00,43.7,39.0,29.96,NW,325,6.0,11.0,83,0.00,,,0.00,weatherlink.com 1.10,2013-02-03 14:30:00,
2013-02-03 09:44:00,44.8,39.0,29.96,NW,314,11.0,11.0,80,0.00,,,0.00,weatherlink.com 1.10,2013-02-03 14:44:00,
2013-02-03 09:59:00,45.8,40.0,29.95,NNW,338,3.0,10.0,79,0.00,,,0.00,weatherlink.com 1.10,2013-02-03 14:59:00,
2013-02-03 10:14:00,47.1,40.0,29.96,NNW,345,5.0,8.0,75,0.00,,,0.00,weatherlink.com 1.10,2013-02-03 15:14:00,
2013-02-03 10:34:00,47.4,40.0,29.95,NW,323,4.0,10.0,74,0.00,,,0.00,weatherlink.com 1.10,2013-02-03 15:34:00,
2013-02-03 10:44:00,47.7,39.0,29.95,North,5,4.0,10.0,73,0.00,,,0.00,weatherlink.com 1.10,2013-02-03 15:44:00,
2013-02-03 11:00:00,48.7,39.0,29.94,North,355,6.0,8.0,69,0.00,,,0.00,weatherlink.com 1.10,2013-02-03 16:00:00,
2013-02-03 11:15:00,49.5,38.0,29.94,North,350,7.0,13.0,66,0.00,,,0.00,weatherlink.com 1.10,2013-02-03 16:15:00,
2013-02-03 11:30:00,48.5,37.0,29.93,WNW,295,10.0,15.0,64,0.00,,,0.00,weatherlink.com 1.10,2013-02-03 16:30:00,
2013-02-03 11:44:00,48.1,37.0,29.93,NNW,327,9.0,15.0,65,0.00,,,0.00,weatherlink.com 1.10,2013-02-03 16:44:00,
2013-02-03 11:59:00,48.5,36.0,29.93,West,277,13.0,13.0,63,0.00,,,0.00,weatherlink.com 1.10,2013-02-03 16:59:00,
2013-02-03 12:14:00,49.0,35.0,29.91,NW,317,3.0,17.0,60,0.00,,,0.00,weatherlink.com 1.10,2013-02-03 17:14:00,
2013-02-03 12:29:00,48.4,36.0,29.90,WNW,294,4.0,12.0,63,0.00,,,0.00,weatherlink.com 1.10,2013-02-03 17:29:00,
2013-02-03 12:45:00,50.1,37.0,29.89,North,360,5.0,15.0,60,0.00,,,0.00,weatherlink.com 1.10,2013-02-03 17:45:00,
2013-02-03 13:00:00,50.9,36.0,29.89,WNW,293,8.0,16.0,57,0.00,,,0.00,weatherlink.com 1.10,2013-02-03 18:00:00,
2013-02-03 13:15:00,50.6,34.0,29.88,NW,306,3.0,13.0,54,0.00,,,0.00,weatherlink.com 1.10,2013-02-03 18:15:00,
2013-02-03 13:30:00,51.0,34.0,29.87,West,261,8.0,17.0,52,0.00,,,0.00,weatherlink.com 1.10,2013-02-03 18:30:00,
2013-02-03 13:45:00,52.8,33.0,29.86,WNW,294,14.0,17.0,48,0.00,,,0.00,weatherlink.com 1.10,2013-02-03 18:45:00,
2013-02-03 14:00:00,52.6,32.0,29.86,NW,326,9.0,18.0,46,0.00,,,0.00,weatherlink.com 1.10,2013-02-03 19:00:00,
2013-02-03 14:15:00,52.5,33.0,29.85,NNE,16,13.0,15.0,47,0.00,,,0.00,weatherlink.com 1.10,2013-02-03 19:15:00,
2013-02-03 14:30:00,52.3,33.0,29.85,West,275,6.0,17.0,48,0.00,,,0.00,weatherlink.com 1.10,2013-02-03 19:30:00,
2013-02-03 14:45:00,51.9,33.0,29.86,NNW,346,6.0,15.0,49,0.00,,,0.00,weatherlink.com 1.10,2013-02-03 19:45:00,
2013-02-03 15:00:00,51.5,34.0,29.86,NNW,343,7.0,17.0,51,0.00,,,0.00,weatherlink.com 1.10,2013-02-03 20:00:00,
2013-02-03 15:15:00,51.7,32.0,29.86,NNW,327,9.0,12.0,47,0.00,,,0.00,weatherlink.com 1.10,2013-02-03 20:15:00,
2013-02-03 15:30:00,52.0,31.0,29.87,NW,306,8.0,20.0,44,0.00,,,0.00,weatherlink.com 1.10,2013-02-03 20:30:00,
2013-02-03 15:45:00,51.5,29.0,29.88,NW,324,7.0,23.0,43,0.00,,,0.00,weatherlink.com 1.10,2013-02-03 20:45:00,
2013-02-03 16:00:00,52.5,30.0,29.88,WNW,298,8.0,17.0,43,0.00,,,0.00,weatherlink.com 1.10,2013-02-03 21:00:00,
2013-02-03 16:15:00,52.1,31.0,29.88,WNW,298,8.0,19.0,44,0.00,,,0.00,weatherlink.com 1.10,2013-02-03 21:15:00,
2013-02-03 16:30:00,52.2,30.0,29.88,North,355,12.0,16.0,43,0.00,,,0.00,weatherlink.com 1.10,2013-02-03 21:30:00,
2013-02-03 16:45:00,52.1,31.0,29.88,WNW,287,7.0,15.0,45,0.00,,,0.00,weatherlink.com 1.10,2013-02-03 21:45:00,
2013-02-03 17:00:00,51.6,32.0,29.88,WNW,299,3.0,16.0,47,0.00,,,0.00,weatherlink.com 1.10,2013-02-03 22:00:00,
2013-02-03 17:15:00,51.2,31.0,29.88,NNW,348,7.0,8.0,47,0.00,,,0.00,weatherlink.com 1.10,2013-02-03 22:15:00,
2013-02-03 17:30:00,50.3,32.0,29.88,NW,304,2.0,9.0,50,0.00,,,0.00,weatherlink.com 1.10,2013-02-03 22:30:00,
2013-02-03 17:45:00,49.4,32.0,29.89,WNW,296,3.0,8.0,51,0.00,,,0.00,weatherlink.com 1.10,2013-02-03 22:45:00,
2013-02-03 18:00:00,48.6,32.0,29.89,WNW,301,2.0,5.0,53,0.00,,,0.00,weatherlink.com 1.10,2013-02-03 23:00:00,
2013-02-03 18:15:00,48.2,32.0,29.90,WNW,301,2.0,3.0,53,0.00,,,0.00,weatherlink.com 1.10,2013-02-03 23:15:00,
2013-02-03 18:30:00,48.1,31.0,29.91,WNW,301,1.0,3.0,53,0.00,,,0.00,weatherlink.com 1.10,2013-02-03 23:30:00,
2013-02-03 18:45:00,48.2,31.0,29.91,WNW,301,1.0,3.0,52,0.00,,,0.00,weatherlink.com 1.10,2013-02-03 23:45:00,
2013-02-03 19:00:00,47.9,31.0,29.91,WNW,301,2.0,2.0,53,0.00,,,0.00,weatherlink.com 1.10,2013-02-04 00:00:00,
2013-02-03 19:15:00,47.4,31.0,29.92,West,278,2.0,3.0,54,0.00,,,0.00,weatherlink.com 1.10,2013-02-04 00:15:00,
2013-02-03 19:30:00,47.6,31.0,29.92,West,278,2.0,3.0,54,0.00,,,0.00,weatherlink.com 1.10,2013-02-04 00:30:00,
2013-02-03 19:45:00,47.0,31.0,29.92,West,278,3.0,4.0,55,0.00,,,0.00,weatherlink.com 1.10,2013-02-04 00:45:00,
2013-02-03 20:00:00,47.0,34.0,29.93,WSW,254,2.0,5.0,61,0.00,,,0.00,weatherlink.com 1.10,2013-02-04 01:00:00,
2013-02-03 20:15:00,47.0,32.0,29.93,WSW,254,1.0,4.0,57,0.00,,,0.00,weatherlink.com 1.10,2013-02-04 01:15:00,
2013-02-03 20:30:00,44.9,36.0,29.93,West,277,3.0,4.0,70,0.00,,,0.00,weatherlink.com 1.10,2013-02-04 01:30:00,
2013-02-03 20:45:00,45.2,36.0,29.94,West,266,2.0,5.0,71,0.00,,,0.00,weatherlink.com 1.10,2013-02-04 01:45:00,
2013-02-03 21:00:00,44.8,37.0,29.94,West,277,4.0,5.0,75,0.00,,,0.00,weatherlink.com 1.10,2013-02-04 02:00:00,
2013-02-03 21:15:00,43.7,37.0,29.94,West,276,3.0,6.0,76,0.00,,,0.00,weatherlink.com 1.10,2013-02-04 02:15:00,
2013-02-03 21:30:00,43.4,35.0,29.95,WNW,286,4.0,6.0,73,0.00,,,0.00,weatherlink.com 1.10,2013-02-04 02:30:00,
2013-02-03 21:45:00,44.2,33.0,29.95,NNW,329,7.0,7.0,66,0.00,,,0.00,weatherlink.com 1.10,2013-02-04 02:45:00,
2013-02-03 22:00:00,43.9,33.0,29.95,NNW,347,5.0,7.0,66,0.00,,,0.00,weatherlink.com 1.10,2013-02-04 03:00:00,
2013-02-03 22:15:00,43.7,33.0,29.95,NNW,347,4.0,7.0,67,0.00,,,0.00,weatherlink.com 1.10,2013-02-04 03:15:00,
2013-02-03 22:30:00,43.2,33.0,29.95,NNW,332,5.0,9.0,67,0.00,,,0.00,weatherlink.com 1.10,2013-02-04 03:30:00,
2013-02-03 22:45:00,43.3,33.0,29.96,NNW,331,6.0,8.0,67,0.00,,,0.00,weatherlink.com 1.10,2013-02-04 03:45:00,
2013-02-03 23:00:00,43.4,33.0,29.97,North,355,1.0,8.0,67,0.00,,,0.00,weatherlink.com 1.10,2013-02-04 04:00:00,
2013-02-03 23:15:00,43.6,34.0,29.97,NNE,12,3.0,7.0,68,0.00,,,0.00,weatherlink.com 1.10,2013-02-04 04:15:00,
2013-02-03 23:30:00,43.1,34.0,29.97,North,5,4.0,7.0,70,0.00,,,0.00,weatherlink.com 1.10,2013-02-04 04:30:00,